星链-30396 (STARLINK-30396 )

导读

STARLINK-30396是美国太空探索技术公司(SpaceX)“星链”(Starlink)卫星互联网星座的一员,于2023年9月30日发射升空。作为星链低轨星座组网卫星,它运行在近地轨道,属于SpaceX全球卫星互联网计划的组成部分。星链项目计划部署数万颗低轨卫星,旨在为全球偏远地区提供低延迟高速宽带互联网服务,该卫星设计寿命超5年,目前已在轨参与星座组网运营。

基本信息
目录编号:
57964
目录名称:
STARLINK-30396
国际标识:
2023-151A
轨道中心:
EARTH
卫星名称:
星链-30396
卫星全名:
星链-30396 (STARLINK-30396 )
卫星状态:
在轨 (已飞行1070 天)
发射日期:
2023-09-30 UTC
国别 :
美国 (US)
星等 :
--
轨道信息
数据来源 国际轨道数据
星历时间: 2026-09-03T19:31:44+0800
1天前
查看轨道信息
半长轴: 6861.133km
偏心率: 0.00009
轨道倾角: 42.999°
近地点辐角 281.940°
升交点赤经 52.246°
平近点角 78.135°
近地点: 482.378km
远地点: 483.614km
周期: 94.266分钟
每日圈数: 15.27598
详细信息
固有亮度:
5
最大亮度:
0.3
卫星平台:
Starlink v2.0 mini
覆盖范围:
全球
运营商:
太空探索技术公司
运营商所在国:
美国
制造商(研发单位):
太空探索技术公司
制造商所在国:
美国
使用方式:
暂无
卫星简介
星链(Starlink)计划是由太空探索技术公司(SpaceX)提出的一个巨型低轨卫星互联网星座项目,计划在2019年至2024年间在太空搭建由约1.2万颗卫星组成的“星链”网络,其中1584颗将部署在地球上空550千米处的近地轨道,并从2020年开始工作。该卫星仍在工作。
2D轨道图
3D轨道图
轨道高度分析图
轨道倾角分析图
轨道综合分析图
查看轨道综合分析图
交会数据列表
事件ID 空间交会对象 最接近时刻(TCA) 交会距离 交会风险概率(CRP) 交会风险指数(CRI) 操作
CDM_260905-114105-796406-435921
2026-09-05T
11:41:30+0000
0.502 km
远距离
1.608059E-4 高风险 0.79
CDM_260905-122805-796406-435921
2026-09-05T
12:28:37+0000
2.773 km
极远距离
1.185082E-6 低风险 0.36